Weather History for KDYT - February, 2014

Change the Weather History Date:

Tuesday, February 11, 2014

  Actual Average Record
Temperature  
Mean Temperature 2 °F -  
Max Temperature 17 °F 23 °F 48 °F (1977)
Min Temperature -13 °F 4 °F -25 °F (1981)
Degree Days  
Heating Degree Days 63    
Moisture  
Dew Point -7 °F    
Average Humidity 62    
Maximum Humidity 85    
Minimum Humidity 42    
Precipitation  
Precipitation 0.00 in - - ()
Sea Level Pressure  
Sea Level Pressure 30.23 in    
Wind  
Wind Speed 2 mph (SSW)    
Max Wind Speed 16 mph    
Max Gust Speed 24 mph    
Visibility 10 miles    
Events Snow    
Averages and records for this station are not official NWS values.
T = Trace of Precipitation, MM = Missing Value Source: NWS Daily Summary

Daily Weather History Graph

Daily Weather History Graph

Search for Another Location

Airport or City:

Trip Planner

Search our weather history database for the weather conditions in past years. The results will help you decide how hot, cold, wet, or windy it might be!

Date:

Astronomy

Feb. 11, 2014 Rise Set
Actual Time 7:18 AM CST 5:27 PM CST
Civil Twilight 6:46 AM CST 5:58 PM CST
Nautical Twilight 6:11 AM CST 6:34 PM CST
Astronomical Twilight 5:36 AM CST 7:09 PM CST
Moon 2:43 PM CST (2/11) 5:00 AM CST (2/11)
Length of Visible Light 11h 11m
Length of Day
10h 08m
Waxing Gibbous, 91% of the Moon is Illuminated
Feb 11
Waxing Gibbous
Feb 14
Full
Feb 22
Last Quarter
Mar 1
New
Mar 8
First Quarter

Hourly Weather History & Observations

Time (CST) Temp. Windchill Dew Point Humidity Pressure Visibility Wind Dir Wind Speed Gust Speed Precip Events Conditions
12:13 AM -5.8 °F - -13.0 °F 71% 30.44 in 10.0 mi Calm Calm - N/A   Clear
12:33 AM -5.8 °F - -13.0 °F 71% 30.43 in 10.0 mi Calm Calm - N/A   Clear
12:54 AM -7.6 °F - -14.8 °F 71% 30.43 in 10.0 mi Calm Calm - N/A   Clear
1:13 AM -7.6 °F - -14.8 °F 71% 30.43 in 10.0 mi Calm Calm - N/A   Clear
1:33 AM -7.6 °F - -14.8 °F 71% 30.43 in 10.0 mi Calm Calm - N/A   Clear
1:54 AM -5.8 °F - -14.8 °F 65% 30.43 in 10.0 mi Calm Calm - N/A   Clear
2:13 AM -5.8 °F - -14.8 °F 65% 30.43 in 10.0 mi Calm Calm - N/A   Clear
2:33 AM -7.6 °F - -14.8 °F 71% 30.43 in 10.0 mi Calm Calm - N/A   Clear
2:54 AM -7.6 °F - -14.8 °F 71% 30.43 in 10.0 mi Calm Calm - N/A   Clear
3:13 AM -7.6 °F - -14.8 °F 71% 30.42 in 10.0 mi Calm Calm - N/A   Clear
3:33 AM -7.6 °F - -14.8 °F 71% 30.43 in 10.0 mi Calm Calm - N/A   Clear
3:54 AM -7.6 °F - -14.8 °F 71% 30.43 in 10.0 mi Calm Calm - N/A   Clear
4:13 AM -9.4 °F - -16.6 °F 71% 30.43 in 10.0 mi Calm Calm - N/A   Clear
4:33 AM -9.4 °F - -16.6 °F 71% 30.42 in 10.0 mi Calm Calm - N/A   Clear
4:54 AM -9.4 °F - -16.6 °F 71% 30.42 in 10.0 mi Calm Calm - N/A   Clear
5:13 AM -9.4 °F - -16.6 °F 71% 30.42 in 10.0 mi Calm Calm - N/A   Clear
5:33 AM -9.4 °F - -16.6 °F 71% 30.41 in 10.0 mi Calm Calm - N/A   Clear
5:54 AM -9.4 °F - -16.6 °F 71% 30.41 in 10.0 mi Calm Calm - N/A   Clear
6:13 AM -11.2 °F - -16.6 °F 77% 30.40 in 10.0 mi Calm Calm - N/A   Clear
6:33 AM -11.2 °F - -16.6 °F 77% 30.40 in 10.0 mi Calm Calm - N/A   Clear
6:53 AM -11.2 °F - -16.6 °F 77% 30.39 in 10.0 mi Calm Calm - N/A   Clear
7:13 AM -11.2 °F - -16.6 °F 77% 30.39 in 10.0 mi Calm Calm - N/A   Clear
7:34 AM -13.0 °F - -18.4 °F 77% 30.39 in 10.0 mi Calm Calm - N/A   Clear
7:53 AM -13.0 °F - -18.4 °F 77% 30.38 in 10.0 mi Calm Calm - N/A   Clear
8:13 AM -11.2 °F - -16.6 °F 77% 30.37 in 10.0 mi Calm Calm - N/A   Clear
8:33 AM -11.2 °F - -16.6 °F 77% 30.37 in 10.0 mi Calm Calm - N/A   Clear
8:53 AM -9.4 °F - -14.8 °F 77% 30.36 in 10.0 mi Calm Calm - N/A   Clear
9:14 AM -5.8 °F - -14.8 °F 65% 30.35 in 10.0 mi Calm Calm - N/A   Clear
9:33 AM -5.8 °F - -13.0 °F 71% 30.34 in 10.0 mi Calm Calm - N/A   Clear
9:53 AM -2.2 °F - -11.2 °F 66% 30.33 in 10.0 mi Calm Calm - N/A   Clear
10:14 AM -0.4 °F - -9.4 °F 66% 30.32 in 10.0 mi Calm Calm - N/A   Clear
10:33 AM 1.4 °F - -9.4 °F 61% 30.32 in 10.0 mi Calm Calm - N/A   Clear
10:53 AM 3.2 °F - -7.6 °F 61% 30.31 in 10.0 mi Calm Calm - N/A   Clear
11:14 AM 6.8 °F - -5.8 °F 56% 30.29 in 10.0 mi Calm Calm - N/A   Clear
11:33 AM 8.6 °F - -5.8 °F 52% 30.28 in 10.0 mi Calm Calm - N/A   Clear
11:53 AM 10.4 °F - -5.8 °F 48% 30.27 in 10.0 mi Calm Calm - N/A   Clear
12:13 PM 10.4 °F - -5.8 °F 48% 30.25 in 10.0 mi Calm Calm - N/A   Clear
12:33 PM 12.2 °F - -4.0 °F 48% 30.23 in 10.0 mi Calm Calm - N/A   Clear
12:53 PM 12.2 °F -3.1 °F -4.0 °F 48% 30.21 in 10.0 mi SSW 13.8 mph 18.4 mph N/A   Clear
1:13 PM 12.2 °F 0.7 °F -4.0 °F 48% 30.20 in 10.0 mi SW 8.1 mph 16.1 mph N/A   Clear
1:34 PM 14.0 °F - -2.2 °F 49% 30.19 in 10.0 mi Calm Calm - N/A   Clear
1:53 PM 15.8 °F - -2.2 °F 45% 30.17 in 10.0 mi Calm Calm - N/A   Clear
2:13 PM 15.8 °F 1.4 °F -2.2 °F 45% 30.16 in 10.0 mi South 13.8 mph 18.4 mph N/A   Clear
2:34 PM 15.8 °F 3.4 °F -2.2 °F 45% 30.14 in 10.0 mi South 10.4 mph 17.3 mph N/A   Clear
2:54 PM 15.8 °F 2.1 °F -2.2 °F 45% 30.13 in 10.0 mi South 12.7 mph 19.6 mph N/A   Clear
3:11 PM 17.6 °F 7.3 °F -2.2 °F 42% 30.12 in 10.0 mi SSW 8.1 mph 20.7 mph N/A   Clear
3:33 PM 17.6 °F 3.7 °F -0.4 °F 45% 30.11 in 10.0 mi South 13.8 mph 17.3 mph N/A   Clear
3:54 PM 17.6 °F 5.7 °F -2.2 °F 42% 30.10 in 10.0 mi SSW 10.4 mph 19.6 mph N/A   Clear
4:13 PM 17.6 °F 9.3 °F -2.2 °F 42% 30.09 in 10.0 mi South 5.8 mph 20.7 mph N/A   Scattered Clouds
4:33 PM 15.8 °F 3.4 °F -2.2 °F 45% 30.08 in 10.0 mi South 10.4 mph 16.1 mph N/A   Scattered Clouds
4:54 PM 15.8 °F 7.2 °F -2.2 °F 45% 30.08 in 10.0 mi South 5.8 mph - N/A   Overcast
5:13 PM 15.8 °F 0.3 °F -2.2 °F 45% 30.06 in 10.0 mi SSW 16.1 mph 24.2 mph N/A   Mostly Cloudy
5:33 PM 15.8 °F 5.1 °F -2.2 °F 45% 30.06 in 10.0 mi South 8.1 mph 16.1 mph N/A   Scattered Clouds
5:54 PM 15.8 °F 6.1 °F -2.2 °F 45% 30.05 in 10.0 mi SSW 6.9 mph - N/A   Mostly Cloudy
6:13 PM 15.8 °F 5.1 °F -2.2 °F 45% 30.04 in 10.0 mi SSW 8.1 mph 20.7 mph N/A   Overcast
6:33 PM 15.8 °F - -0.4 °F 49% 30.05 in 10.0 mi Calm Calm - N/A   Overcast
6:54 PM 14.0 °F 1.2 °F -0.4 °F 53% 30.04 in 10.0 mi South 10.4 mph 17.3 mph N/A   Overcast
7:13 PM 14.0 °F - -2.2 °F 49% 30.03 in 10.0 mi Calm Calm - N/A   Overcast
7:33 PM 14.0 °F 6.5 °F -0.4 °F 53% 30.02 in 10.0 mi SSW 4.6 mph 16.1 mph N/A   Overcast
7:54 PM 14.0 °F 1.2 °F -0.4 °F 53% 30.01 in 10.0 mi SSW 10.4 mph 18.4 mph N/A   Overcast
8:13 PM 15.8 °F 3.4 °F -0.4 °F 49% 30.01 in 10.0 mi SSW 10.4 mph 21.9 mph N/A   Overcast
8:33 PM 14.0 °F 6.5 °F -0.4 °F 53% 30.01 in 10.0 mi SSW 4.6 mph - N/A   Overcast
8:54 PM 15.8 °F 0.3 °F 1.4 °F 53% 30.01 in 10.0 mi SSW 16.1 mph 23.0 mph N/A   Overcast
9:13 PM 15.8 °F 3.4 °F 3.2 °F 58% 30.01 in 7.0 mi SW 10.4 mph 21.9 mph N/A Snow Light Snow
9:34 PM 14.0 °F -0.2 °F 6.8 °F 73% 30.02 in 4.0 mi SW 12.7 mph 23.0 mph N/A Snow Light Snow
9:53 PM 12.2 °F - 8.6 °F 85% 30.02 in 3.0 mi Calm Calm - N/A Snow Light Snow
10:13 PM 12.2 °F - 8.6 °F 85% 30.02 in 7.0 mi Calm Calm - N/A Snow Light Snow
10:34 PM 14.0 °F - 8.6 °F 79% 30.02 in 10.0 mi Calm Calm - N/A Snow Light Snow
10:53 PM 14.0 °F 5.1 °F 8.6 °F 79% 30.02 in 10.0 mi SSW 5.8 mph 16.1 mph N/A Snow Light Snow
11:13 PM 14.0 °F - 8.6 °F 79% 30.02 in 10.0 mi Calm Calm - N/A Snow Light Snow
11:34 PM 14.0 °F - 8.6 °F 79% 30.02 in 10.0 mi Calm Calm - N/A   Overcast
11:53 PM 14.0 °F 3.9 °F 6.8 °F 73% 30.01 in 10.0 mi SSW 6.9 mph - N/A   Overcast